Location: Unspecified
(0.0000°N, 0.0000°E)
Time: 11:53:06
(UTC+00:00)

S-56A Canister/Altair - All Passes

Search period start: 28 May 2016 00:00
Search period end: 07 June 2016 00:00
Orbit: 641 x 2494 km, 38.9° (Epoch: 26 May)

Date Brightness Start Highest point End Pass type
(mag) Time Alt. Az. Time Alt. Az. Time Alt. Az.
28 May - 01:35:06 10° SW 01:50:10 70° SE 02:01:48 10° ENE visible
28 May - 03:43:47 10° WSW 03:56:01 38° NW 04:05:04 10° NNE visible
28 May - 12:25:31 10° NNE 12:26:47 11° NE 12:28:05 10° ENE daylight
28 May - 14:25:17 10° WNW 14:30:13 69° SW 14:37:10 10° SE daylight
28 May - 16:32:38 10° SW 16:35:51 13° SSW 16:39:37 10° S daylight
28 May - 22:58:17 10° SSW 23:08:42 22° SSE 23:18:51 10° ESE night (unlit)
29 May - 01:01:56 10° SW 01:16:55 63° SE 01:29:06 10° ENE visible
29 May - 03:09:51 10° WSW 03:23:10 46° NW 03:33:03 10° NNE visible
29 May - 13:53:12 10° NW 13:57:57 87° SW 14:04:23 10° SE daylight
29 May - 15:59:45 10° WSW 16:03:08 15° SSW 16:07:10 10° S daylight
29 May - 22:25:54 10° S 22:35:14 19° SSE 22:44:36 10° ESE night (unlit)
30 May - 00:28:52 10° SW 00:43:39 56° SE 00:56:14 10° ENE visible
30 May - 02:36:04 10° WSW 02:50:12 53° NW 03:00:55 10° NNE visible
30 May - 04:52:14 10° WNW 04:56:01 12° NW 04:59:28 10° NNW visible
30 May - 13:21:11 10° NW 13:25:45 73° NE 13:31:39 10° SE daylight
30 May - 15:26:59 10° WSW 15:30:29 16° SSW 15:34:45 10° S daylight
30 May - 21:53:45 10° S 22:01:44 16° SSE 22:09:58 10° ESE night (unlit)
30 May - 23:55:56 10° SSW 00:10:19 50° SE 00:23:14 10° ENE visible
31 May - 02:02:25 10° WSW 02:17:09 62° NW 02:28:38 10° NE visible
31 May - 04:16:19 10° WNW 04:23:07 16° NW 04:28:56 10° N visible
31 May - 12:49:12 10° NW 12:53:35 54° NE 12:58:55 10° ESE daylight
31 May - 14:54:19 10° WSW 14:57:56 18° SSW 15:02:22 10° S daylight
31 May - 21:22:00 10° S 21:28:15 14° SSE 21:34:47 10° ESE visible
31 May - 23:23:06 10° SSW 23:36:57 45° SE 23:50:03 10° ENE visible
01 Jun - 01:28:54 10° SW 01:44:01 70° NW 01:56:14 10° NE visible
01 Jun - 03:41:15 10° W 03:50:11 20° NW 03:57:35 10° N visible
01 Jun - 12:17:15 10° NNW 12:21:27 40° NE 12:26:11 10° ESE daylight
01 Jun - 14:21:44 10° W 14:25:28 21° SSW 14:30:01 10° SSE daylight
01 Jun - 20:51:07 10° SSE 20:54:47 11° SSE 20:58:34 10° SE visible
01 Jun - 22:50:24 10° SSW 23:03:36 40° SE 23:16:40 10° ENE night (unlit)
02 Jun - 00:55:33 10° SW 01:10:49 78° NW 01:23:43 10° NE visible
02 Jun - 03:06:35 10° W 03:17:10 25° NW 03:25:54 10° N visible
02 Jun - 11:45:21 10° NNW 11:49:16 30° NE 11:53:27 10° ESE daylight
02 Jun - 13:49:13 10° W 13:53:03 24° SW 13:57:42 10° SSE daylight
02 Jun - 22:17:50 10° SSW 22:30:15 35° SE 22:43:04 10° E night (unlit)
03 Jun - 00:22:20 10° SW 00:37:33 87° NW 00:51:03 10° NE visible
03 Jun - 02:32:13 10° W 02:44:07 29° NW 02:53:59 10° NNE visible
03 Jun - 11:13:30 10° NNW 11:17:05 22° NE 11:20:41 10° E daylight
03 Jun - 13:16:46 10° W 13:20:43 29° SW 13:25:25 10° SSE daylight
03 Jun - 21:45:25 10° SSW 21:56:55 31° SE 22:09:14 10° E visible
03 Jun - 23:49:15 10° SW 00:04:15 85° SE 00:18:16 10° NE visible
04 Jun - 01:58:06 10° W 02:10:59 35° NW 02:21:53 10° NNE visible
04 Jun - 10:41:42 10° N 10:44:49 17° NE 10:47:50 10° E daylight
04 Jun - 12:44:21 10° WNW 12:48:28 36° SW 12:53:10 10° SSE daylight
04 Jun - 21:13:09 10° SSW 21:23:37 26° SE 21:35:09 10° E visible
04 Jun - 23:16:18 10° SW 23:30:55 76° SE 23:45:19 10° NE visible
05 Jun - 01:24:13 10° WSW 01:37:48 40° NW 01:49:37 10° NNE visible
05 Jun - 10:10:01 10° N 10:12:30 14° NE 10:14:51 10° ENE daylight
05 Jun - 12:11:57 10° WNW 12:16:15 47° SW 12:20:56 10° SE daylight
05 Jun - 20:41:05 10° S 20:50:20 22° SE 21:00:45 10° E visible
05 Jun - 22:43:29 10° SW 22:57:36 68° SE 23:12:13 10° ENE visible
06 Jun - 00:50:31 10° WSW 01:04:34 46° NW 01:17:14 10° NNE visible
06 Jun - 03:07:27 10° NW 03:12:10 12° NW 03:16:33 10° NNW visible
06 Jun - 09:38:37 10° NNE 09:40:06 11° NNE 09:41:32 10° NE daylight
06 Jun - 11:39:34 10° WNW 11:44:06 63° SW 11:48:42 10° SE daylight
06 Jun - 20:09:16 10° S 20:17:07 19° SE 20:26:00 10° ESE visible
06 Jun - 22:10:49 10° SW 22:24:18 61° SE 22:38:59 10° ENE visible
